User: anonymous   Login
Location: ??
(31.9467°N, 34.8903°E)
Time: 12:03:02
(UTC+00:00)
Language:

Cosmos 1745 Rocket - Orbit

View from above orbital plane
View from above orbital plane
View from above satellite
View from above satellite

Ground track
Ground track

The orbit data is extracted from the following two-line orbital elements,

1 16728U 86037B   21018.71895418  .00000071  00000-0  56503-4 0  9994
2 16728  82.9544  84.9693 0032002 132.9852 340.4186 13.76737978740773
Epoch (UTC): 18 January 2021 17:15:17
Eccentricity: 0.0032002
inclination: 82.9544°
perigee height: 952 km
apogee height: 999 km
right ascension of ascending node: 84.9693°
argument of perigee: 132.9852°
revolutions per day: 13.76737978
mean anomaly at epoch: 340.4186°
orbit number at epoch: 74077

The dashed part of the orbit path shows where the satellite is in the earth's shadow,  

DLR